Regional Weather Roundup
Issued by NWS

Home | Current Version | Previous Version | Text Only | Print | Product List | Glossary Off
Versions: 1 2 3 4 5 6 7 8 9 10 11 12 13 14 15 16 17 18 19 20 21 22 23 24 25 26 27 28 29 30 31 32 33 34 35 36 37 38 39 40 41 42 43 44 45 46 47 48 49 50

000
ASUS43 KFSD 271102
RWRSD

WEATHER ROUNDUP FOR SOUTH DAKOTA
NATIONAL WEATHER SERVICE SIOUX FALLS SD
500 AM CST MON FEB 27 2017

NOTE: "FAIR" INDICATES FEW OR NO CLOUDS BELOW 12,000 FEET WITH NO
SIGNIFICANT WEATHER AND/OR OBSTRUCTIONS TO VISIBILITY.


SDZ001>005-009-010-012>017-271200-
NORTHWEST AND NORTH CENTRAL SOUTH DAKOTA

CITY           SKY/WX    TMP DP  RH WIND       PRES   REMARKS
BUFFALO          N/A     21  19  92 S7        29.61F WCI  12
FAITH            N/A     23  22  96 E8        29.72F WCI  14
MOBRIDGE       CLOUDY    24  18  77 E8        29.77F WCI  15
$$

SDZ012>016-024>037-041>051-057-063-072>074-271200-
SOUTHWEST AND SOUTH CENTRAL SOUTH DAKOTA

CITY           SKY/WX    TMP DP  RH WIND       PRES   REMARKS
RAPID CTY ARPT PTCLDY    21  13  71 S10       29.66F WCI  10
PIERRE         MOCLDY    19  14  81 E3        29.78F
CUSTER         CLOUDY    19   1  45 W8        29.57F WCI   9
ELLSWORTH AFB  PTCLDY    23  14  68 S10       29.65F WCI  12
PHILIP         CLOUDY    20  16  84 E5        29.74F WCI  13
PINE RIDGE     CLOUDY    25  14  63 S29G36    29.68F WCI   8
SPEARFISH      FAIR      19  10  68 CALM      29.62F
WINNER         FAIR      23  12  62 SW16      29.80F WCI  10
$$

SDZ004>011-016>023-039-040-271200-
NORTHEAST SOUTH DAKOTA

CITY           SKY/WX    TMP DP  RH WIND       PRES   REMARKS
ABERDEEN       CLOUDY    22  18  85 NE7       29.85S WCI  13
WATERTOWN      CLEAR     21  18  88 S8        29.83S WCI  11
BROOKINGS      CLEAR     23  18  81 S5        29.86R WCI  17
SISSETON         N/A     18  17  96 NW3       29.87S
$$

SDZ017-020-022-023-036>040-048>070-271200-
SOUTHEAST SOUTH DAKOTA

CITY           SKY/WX    TMP DP  RH WIND       PRES   REMARKS
SIOUX FALLS    CLEAR     25  19  78 S5        29.89S WCI  19
HURON          CLEAR     20  17  88 S5        29.85S WCI  13
CHAMBERLAIN    MOCLDY    21  17  83 CALM      29.83F
MITCHELL       CLEAR     21  17  84 S6        29.88R WCI  13
YANKTON        CLEAR     19  12  73 SE6       29.90S WCI  11
$$

ABBREVIATIONS USED IN REMARKS
   TC - TEMPERATURE IN CELSIUS
  WCI - WIND CHILL INDEX
   HX - HEAT INDEX
  VSB - VISIBILITY




USA.gov is the U.S. government's official web portal to all federal, state and local government web resources and services.